This demonstration page uses our WeatherBlox Daily Observations layout. Learn more.

Left ArrowRight Arrow

53.62937, 11.41316

Hourly Observations for August 18, 2022

Temp ( °F °C ) Dew Point ( °F °C ) Humidity (%) Winds ( mph kmh ) Pressure ( in mb ) Visibility ( mi km ) Precip ( " mm )
12:20 am 00:20 Mostly Cloudy 66 19 64 18 94 94 ENE 6 9 29.88 1012 6 10 0.00 0.00
12:50 am 00:50 Mostly Cloudy 66 19 64 18 94 94 ENE 8 13 29.85 1011 6 10 0.00 0.00
1:20 am 01:20 Mostly Clear 68 20 64 18 88 88 NE 6 9 29.85 1011 6 10 0.00 0.00
1:50 am 01:50 Mostly Clear 68 20 63 17 83 83 E 9 15 29.85 1011 6 10 0.00 0.00
2:20 am 02:20 Partly Cloudy 66 19 63 17 88 88 ENE 7 11 29.85 1011 6 10 0.00 0.00
2:50 am 02:50 Mostly Clear 64 18 63 17 94 94 ENE 6 9 29.85 1011 6 10 0.00 0.00
3:20 am 03:20 Mostly Clear 64 18 63 17 94 94 E 3 6 29.85 1011 6 10 0.00 0.00
3:50 am 03:50 Mostly Clear 63 17 61 16 94 94 ENE 5 7 29.85 1011 6 10 0.00 0.00
4:20 am 04:20 Clear 66 19 61 16 83 83 E 9 15 29.82 1010 6 10 0.00 0.00
4:50 am 04:50 Clear 66 19 61 16 83 83 E 8 13 29.85 1011 6 10 0.00 0.00
5:20 am 05:20 Clear 64 18 61 16 88 88 E 6 9 29.82 1010 6 10 0.00 0.00
5:50 am 05:50 Clear 64 18 61 16 88 88 E 3 6 29.85 1011 6 10 0.00 0.00
6:20 am 06:20 Mostly Sunny 64 18 61 16 88 88 E 2 4 29.85 1011 6 10 0.00 0.00
6:50 am 06:50 Mostly Sunny 64 18 63 17 94 94 ESE 3 6 29.82 1010 6 10 0.00 0.00
7:20 am 07:20 Mostly Sunny 66 19 63 17 88 88 Calm 29.82 1010 6 10 0.00 0.00
7:50 am 07:50 Mostly Sunny 66 19 63 17 88 88 VRB 1 2 29.85 1011 6 10 0.00 0.00
8:20 am 08:20 Mostly Sunny 70 21 64 18 83 83 VRB 1 2 29.82 1010 6 10 0.00 0.00
8:50 am 08:50 Mostly Sunny 70 21 64 18 83 83 Calm 29.85 1011 6 10 0.00 0.00
9:20 am 09:20 Mostly Sunny 73 23 66 19 78 78 Calm 29.85 1011 6 10 0.00 0.00
9:50 am 09:50 Mostly Sunny 72 22 64 18 78 78 W 5 7 29.85 1011 6 10 0.00 0.00
10:20 am 10:20 Mostly Sunny 73 23 66 19 78 78 WNW 5 7 29.85 1011 6 10 0.00 0.00
10:50 am 10:50 Mostly Sunny 73 23 66 19 78 78 W 5 7 29.85 1011 6 10 0.00 0.00
11:20 am 11:20 Mostly Sunny 73 23 66 19 78 78 W 6 9 29.85 1011 6 10 0.00 0.00
11:50 am 11:50 Partly Cloudy 75 24 68 20 78 78 W 6 9 29.85 1011 6 10 0.00 0.00
12:20 pm 12:20 Partly Cloudy 75 24 66 19 74 74 W 6 9 29.85 1011 6 10 0.00 0.00
12:50 pm 12:50 Partly Cloudy 72 22 66 19 83 83 WSW 6 9 29.88 1012 6 10 0.00 0.00
1:20 pm 13:20 Mostly Sunny 73 23 66 19 78 78 VRB 6 9 29.88 1012 6 10 0.00 0.00
1:50 pm 13:50 Mostly Sunny 75 24 64 18 69 69 W 7 11 29.85 1011 6 10 0.00 0.00
2:20 pm 14:20 Mostly Sunny 75 24 64 18 69 69 W 6 9 29.85 1011 6 10 0.00 0.00
2:50 pm 14:50 Mostly Sunny 77 25 64 18 65 65 W 6 9 29.85 1011 6 10 0.00 0.00
3:20 pm 15:20 Mostly Sunny 77 25 64 18 65 65 WNW 9 15 29.85 1011 6 10 0.00 0.00
3:50 pm 15:50 Mostly Sunny 77 25 64 18 65 65 W 6 9 29.85 1011 6 10 0.00 0.00
4:20 pm 16:20 Partly Cloudy 77 25 64 18 65 65 WNW 6 9 29.85 1011 6 10 0.00 0.00
4:50 pm 16:50 Mostly Sunny 79 26 64 18 61 61 WNW 7 11 29.85 1011 6 10 0.00 0.00
5:20 pm 17:20 Mostly Sunny 79 26 64 18 61 61 NW 7 11 29.85 1011 6 10 0.00 0.00
5:50 pm 17:50 Mostly Sunny 79 26 64 18 61 61 WNW 6 9 29.85 1011 6 10 0.00 0.00
6:20 pm 18:20 Partly Cloudy 79 26 64 18 61 61 NW 7 11 29.85 1011 6 10 0.00 0.00
6:50 pm 18:50 Mostly Sunny 77 25 64 18 65 65 WNW 9 15 29.85 1011 6 10 0.00 0.00
7:20 pm 19:20 Mostly Sunny 77 25 63 17 61 61 WNW 6 9 29.85 1011 6 10 0.00 0.00
7:50 pm 19:50 Mostly Sunny 75 24 64 18 69 69 WNW 5 7 29.85 1011 6 10 0.00 0.00
8:20 pm 20:20 Mostly Sunny 73 23 64 18 73 73 WNW 6 9 29.85 1011 6 10 0.00 0.00
8:50 pm 20:50 Mostly Clear 73 23 64 18 73 73 WNW 5 7 29.85 1011 6 10 0.00 0.00
9:20 pm 21:20 Mostly Clear 72 22 64 18 78 78 WNW 7 11 29.85 1011 6 10 0.00 0.00
9:50 pm 21:50 Mostly Clear 70 21 64 18 83 83 WNW 7 11 29.88 1012 6 10 0.00 0.00
10:20 pm 22:20 Mostly Cloudy 70 21 64 18 83 83 WNW 7 11 29.88 1012 6 10 0.00 0.00
10:50 pm 22:50 Cloudy 68 20 64 18 88 88 WNW 6 9 29.88 1012 6 10 0.00 0.00
11:20 pm 23:20 Mostly Cloudy 66 19 63 17 88 88 W 5 7 29.88 1012 6 10 0.00 0.00
11:50 pm 23:50 Partly Cloudy 66 19 63 17 88 88 W 5 7 29.88 1012 6 10 0.00 0.00

Powered by AerisWeather